"2016-03-04 00:00:00",1426971,1.305,107.7,3.946,0.095,14.46,105.272,12.77,13.81,13.45,0,110.6,13.13,13.57,69.7
"2016-03-04 00:00:30",1426972,1.391,104.2,4.467,0.12,14.66,105.272,12.77,13.83,13.45,0,110.6,13.13,13.57,66.2
"2016-03-04 00:01:00",1426973,3.028,113.3,10.87,1.511,17.58,105.272,12.77,13.96,13.57,0,110.6,13.08,13.57,75.3
"2016-03-04 00:01:30",1426974,2.302,107.8,10.53,1.292,16.6,105.2712,12.77,13.9,13.51,0,110.6,13.08,13.56,69.8
"2016-03-04 00:02:00",1426975,1.091,99,6.694,0.114,15.17,105.2644,12.75,13.78,13.44,0,110.6,13.13,13.55,61.0
"2016-03-04 00:02:30",1426976,0.784,115.7,3.52,0.105,14.63,105.2557,12.73,13.77,13.42,0,110.6,13.12,13.52,77.7
"2016-03-04 00:03:00",1426977,0.793,101.7,9.11,0.09,14.62,105.2391,12.68,13.78,13.33,0,110.6,13.12,13.48,63.7
"2016-03-04 00:03:30",1426978,0.77,91.2,2.784,0.079,14.73,105.2383,12.68,13.76,13.35,0,110.6,13.13,13.48,53.2
"2016-03-04 00:04:00",1426979,2.289,103.2,7.378,1.448,17.65,105.2383,12.68,13.89,13.52,0,110.6,13.08,13.48,65.2
"2016-03-04 00:04:30",1426980,0.824,89.2,5.089,0.706,15.27,105.2389,12.68,13.85,13.48,0,110.6,13.08,13.48,51.2
"2016-03-04 00:05:00",1426981,0.592,84.4,3.827,0.064,14.31,105.2378,12.68,13.72,13.39,0,110.6,13.13,13.48,46.4
"2016-03-04 00:05:30",1426982,0.551,76.78,2.838,0.099,14.16,105.2331,12.67,13.72,13.38,0,110.6,13.13,13.47,38.8
"2016-03-04 00:06:00",1426983,1.005,78.18,6.409,0.993,14.72,105.2148,12.62,13.7,13.37,0,110.6,13.09,13.42,40.2
"2016-03-04 00:06:30",1426984,1.655,83,8.74,1.391,16.54,105.211,12.61,13.88,13.54,0,110.6,13.09,13.41,45.0
"2016-03-04 00:07:00",1426985,0.755,81.9,6.762,1.026,14.81,105.2113,12.61,13.69,13.33,0,110.6,13.09,13.41,43.9
"2016-03-04 00:07:30",1426986,0.594,78.96,4.753,0.114,14.21,105.2133,12.62,13.68,13.33,0,110.6,13.13,13.41,41.0
"2016-03-04 00:08:00",1426987,1.108,71.15,5.871,0.135,14.24,105.216,12.63,13.67,13.3,0,110.6,13.14,13.42,33.2
"2016-03-04 00:08:30",1426988,1.339,86.1,3.788,0.156,14.4,105.2091,12.61,13.67,13.27,0,110.6,13.14,13.40,48.1
"2016-03-04 00:09:00",1426989,1.074,87.9,3.353,0.129,14.58,105.1947,12.57,13.66,13.26,0,110.6,13.14,13.37,49.9
"2016-03-04 00:09:30",1426990,1.776,94.1,10.81,1.34,16.12,105.1944,12.57,13.7,13.31,0,110.6,13.1,13.37,56.1
"2016-03-04 00:10:00",1426991,2.176,98.9,7.767,1.302,16.5,105.1985,12.58,13.78,13.39,0,110.6,13.09,13.38,60.9
"2016-03-04 00:10:30",1426992,2.091,94.7,6.354,1.118,16.44,105.1992,12.58,13.68,13.27,0,110.5,13.1,13.38,56.7
"2016-03-04 00:11:00",1426993,1.548,91.3,2.637,0.141,14.94,105.1914,12.56,13.6,13.19,0,110.5,13.14,13.36,53.3
"2016-03-04 00:11:30",1426994,1.633,92.6,5.03,0.106,14.85,105.1749,12.52,13.58,13.2,0,110.5,13.14,13.32,54.6
"2016-03-04 00:12:00",1426995,1.731,87.3,1.634,0.076,14.74,105.1718,12.51,13.56,13.22,0,110.5,13.15,13.31,49.3
"2016-03-04 00:12:30",1426996,1.606,87.6,1.67,0.084,14.78,105.1713,12.51,13.59,13.29,0,110.5,13.1,13.31,49.6
"2016-03-04 00:13:00",1426997,3.164,96.7,6.573,1.421,17.8,105.1597,12.48,13.69,13.39,0,110.5,13.1,13.28,58.7
"2016-03-04 00:13:30",1426998,1.955,98.9,9.24,0.781,15.05,105.1445,12.44,13.59,13.3,0,110.5,13.1,13.24,60.9
"2016-03-04 00:14:00",1426999,2.792,113.5,9.32,1.434,16.3,105.1386,12.43,13.64,13.36,0,110.5,13.1,13.22,75.5
"2016-03-04 00:14:30",1427000,1.813,94.5,8.05,1.047,15.13,105.1369,12.42,13.57,13.31,0,110.5,13.1,13.22,56.5
"2016-03-04 00:15:00",1427001,1.461,95.3,3.22,0.244,14.16,105.1189,12.38,13.46,13.19,0,110.5,13.15,13.17,57.3
"2016-03-04 00:15:30",1427002,1.8,98.4,2.791,0.183,14.2,105.1048,12.34,13.44,13.16,0,110.5,13.15,13.14,60.4
"2016-03-04 00:16:00",1427003,1.964,101.8,1.641,0.094,14.44,105.1048,12.34,13.42,13.06,0,110.5,13.15,13.14,63.8
"2016-03-04 00:16:30",1427004,2.194,106.5,4.683,0.927,15.4,105.104,12.34,13.53,13.04,0,110.5,13.1,13.13,68.5
"2016-03-04 00:17:00",1427005,2.937,109,7.581,1.403,16.67,105.0927,12.31,13.49,12.97,0,110.5,13.1,13.10,71.0
"2016-03-04 00:17:30",1427006,1.849,105.1,1.095,0.042,14.84,105.0749,12.26,13.4,12.86,0,110.5,13.15,13.06,67.1
"2016-03-04 00:18:00",1427007,1.968,106.5,2.266,0.058,14.66,105.071,12.25,13.35,12.79,0,110.5,13.15,13.05,68.5
"2016-03-04 00:18:30",1427008,2.075,108.3,2.126,0.094,14.69,105.071,12.25,13.33,12.77,0,110.5,13.15,13.05,70.3
"2016-03-04 00:19:00",1427009,1.913,113,2.139,0.043,14.71,105.062,12.23,13.32,12.8,0,110.5,13.15,13.03,75.0
"2016-03-04 00:19:30",1427010,2.892,113.6,6.292,1.308,16.32,105.0457,12.19,13.41,12.94,0,110.5,13.1,12.98,75.6
"2016-03-04 00:20:00",1427011,3.208,120,7.794,1.376,16.43,105.041,12.18,13.41,12.89,0,110.5,13.1,12.97,82.0
"2016-03-04 00:20:30",1427012,2.867,113.5,7.928,1.209,16.17,105.0435,12.18,13.45,12.95,0,110.5,13.1,12.98,75.5
"2016-03-04 00:21:00",1427013,2.734,112.3,6.962,1.23,15.43,105.0342,12.16,13.3,12.82,0,110.5,13.1,12.95,74.3
"2016-03-04 00:21:30",1427014,1.698,113.1,2.044,0.186,14.13,105.0146,12.11,13.23,12.81,0,110.5,13.14,12.90,75.1
"2016-03-04 00:22:00",1427015,1.758,113.5,1.533,0.063,14.15,105.0164,12.11,13.22,12.8,0,110.5,13.15,12.91,75.5
"2016-03-04 00:22:30",1427016,1.766,114.1,3.907,0.044,14.32,105.0194,12.12,13.21,12.83,0,110.5,13.15,12.92,76.1
"2016-03-04 00:23:00",1427017,3.156,112.3,8.17,1.354,17.05,105.0123,12.1,13.39,13.1,0,110.5,13.1,12.90,74.3
"2016-03-04 00:23:30",1427018,2.458,104.7,4.688,0.984,15.74,105.0052,12.09,13.25,13.04,0,110.5,13.1,12.88,66.7
"2016-03-04 00:24:00",1427019,1.976,113,2.596,0.087,14.56,105.0012,12.08,13.15,13.01,0,110.5,13.15,12.87,75.0
"2016-03-04 00:24:30",1427020,2.271,104.8,5.041,0.154,14.54,105.0016,12.08,13.14,13.02,0,110.5,13.15,12.87,66.8
"2016-03-04 00:25:00",1427021,2.224,97.6,1.888,0.176,14.68,104.9904,12.05,13.13,13.11,0,110.5,13.15,12.84,59.6
"2016-03-04 00:25:30",1427022,2.112,100.7,2.939,0.051,14.75,104.9721,12,13.09,13.15,0,110.5,13.16,12.79,62.7
"2016-03-04 00:26:00",1427023,3.198,103.7,8.15,1.346,16.75,104.9712,12,13.25,13.38,0,110.5,13.12,12.79,65.7
"2016-03-04 00:26:30",1427024,3.54,111.5,7.009,1.467,17.36,104.9707,12,13.29,13.43,0,110.5,13.11,12.79,73.5
"2016-03-04 00:27:00",1427025,3.336,114.6,6.803,1.468,16.88,104.9608,11.97,13.23,13.39,0,110.5,13.12,12.77,76.6
"2016-03-04 00:27:30",1427026,2.116,107.3,1.823,0.054,14.29,104.9445,11.93,13.03,13.22,0,110.5,13.16,12.72,69.3
"2016-03-04 00:28:00",1427027,2.188,102,2.068,0.124,14.19,104.9374,11.91,13.02,13.27,0,110.5,13.16,12.71,64.0
"2016-03-04 00:28:30",1427028,2.867,104,5.392,1.178,15.31,104.9374,11.91,13.04,13.29,0,110.5,13.12,12.71,66.0
"2016-03-04 00:29:00",1427029,2.58,102.7,7.31,1.203,16.27,104.9349,11.91,13.15,13.46,0,110.5,13.12,12.70,64.7
"2016-03-04 00:29:30",1427030,2.688,105.2,6.598,1.131,16.16,104.9267,11.88,13.02,13.4,0,110.5,13.12,12.68,67.2
"2016-03-04 00:30:00",1427031,1.795,95.3,3.409,0.094,14.85,104.9073,11.84,12.97,13.4,0,110.5,13.17,12.63,57.3
"2016-03-04 00:30:30",1427032,1.761,97.3,0.807,0.069,14.76,104.9036,11.83,12.94,13.38,0,110.5,13.17,12.62,59.3
"2016-03-04 00:31:00",1427033,1.788,97.3,1.882,0.092,14.81,104.9036,11.83,12.93,13.39,0,110.4,13.17,12.62,59.3
"2016-03-04 00:31:30",1427034,2.184,100.2,3.154,0.076,14.65,104.9028,11.82,12.92,13.43,0,110.4,13.17,12.62,62.2
"2016-03-04 00:32:00",1427035,3.274,105.2,6.954,1.348,16.91,104.8944,11.8,13.01,13.57,0,110.4,13.12,12.60,67.2
"2016-03-04 00:32:30",1427036,2.927,102.2,6.064,1.194,15.9,104.8842,11.78,13.03,13.63,0,110.4,13.12,12.57,64.2
"2016-03-04 00:33:00",1427037,3.659,102.8,8.47,1.464,17.31,104.8822,11.77,13.07,13.69,0,110.4,13.12,12.56,64.8
"2016-03-04 00:33:30",1427038,2.273,96.5,1.365,0.529,14.25,104.8828,11.77,12.86,13.51,0,110.4,13.12,12.57,58.5
"2016-03-04 00:34:00",1427039,2.125,94.9,1.689,0.059,14.25,104.8843,11.78,12.85,13.54,0,110.4,13.17,12.57,56.9
"2016-03-04 00:34:30",1427040,2.501,94.9,5.027,0.912,15.23,104.8864,11.78,12.92,13.62,0,110.4,13.12,12.57,56.9
"2016-03-04 00:35:00",1427041,3.57,100,7.665,1.441,16.9,104.8759,11.75,12.94,13.64,0,110.4,13.12,12.55,62.0
"2016-03-04 00:35:30",1427042,3.131,100.4,6.643,1.212,16.25,104.8685,11.74,12.93,13.67,0,110.4,13.13,12.53,62.4
"2016-03-04 00:36:00",1427043,2.504,99.2,1.367,0.108,14.56,104.8706,11.74,12.79,13.57,0,110.4,13.17,12.53,61.2
"2016-03-04 00:36:30",1427044,2.499,99.3,1.464,0.062,14.53,104.8711,11.74,12.77,13.56,0,110.4,13.17,12.54,61.3
"2016-03-04 00:37:00",1427045,2.556,99.2,1.007,0.075,14.63,104.8675,11.73,12.75,13.57,0,110.4,13.17,12.53,61.2
"2016-03-04 00:37:30",1427046,3.038,100.7,4.766,0.925,15.31,104.8557,11.7,12.77,13.59,0,110.4,13.12,12.50,62.7
"2016-03-04 00:38:00",1427047,3.759,107.8,7.735,1.421,17.36,104.8478,11.68,12.95,13.8,0,110.4,13.12,12.48,69.8
"2016-03-04 00:38:30",1427048,3.761,106.7,7.163,1.391,16.95,104.8376,11.66,12.95,13.78,0,110.4,13.12,12.45,68.7
"2016-03-04 00:39:00",1427049,3.011,101.1,4.42,0.983,14.81,104.8376,11.66,12.74,13.61,0,110.4,13.12,12.45,63.1
"2016-03-04 00:39:30",1427050,2.664,101.7,0.9,0.089,14.33,104.8371,11.66,12.69,13.55,0,110.4,13.17,12.45,63.7
"2016-03-04 00:40:00",1427051,2.73,103.5,0.967,0.058,14.34,104.8297,11.64,12.73,13.6,0,110.4,13.17,12.43,65.5
"2016-03-04 00:40:30",1427052,4.213,112.8,7.207,1.509,17.57,104.8207,11.61,12.83,13.73,0,110.4,13.12,12.41,74.8
"2016-03-04 00:41:00",1427053,2.667,104.5,4.56,0.526,15.36,104.8063,11.58,12.73,13.67,0,110.4,13.17,12.37,66.5
"2016-03-04 00:41:30",1427054,2.431,106.2,1.792,0.088,14.62,104.8038,11.57,12.65,13.59,0,110.4,13.17,12.36,68.2
"2016-03-04 00:42:00",1427055,2.41,108.7,1.398,0.06,14.6,104.8038,11.57,12.64,13.59,0,110.4,13.17,12.36,70.7
"2016-03-04 00:42:30",1427056,2.462,107.7,1.047,0.052,14.77,104.8038,11.57,12.63,13.58,0,110.4,13.18,12.36,69.7
"2016-03-04 00:43:00",1427057,3.144,112.2,7.368,1.189,15.91,104.8032,11.57,12.71,13.68,0,110.4,13.13,12.36,74.2
"2016-03-04 00:43:30",1427058,3.915,117,7.516,1.411,17.33,104.7948,11.55,12.81,13.79,0,110.4,13.13,12.34,79.0
"2016-03-04 00:44:00",1427059,3.459,114.8,7.248,1.376,16.46,104.7866,11.53,12.7,13.67,0,110.4,13.13,12.32,76.8
"2016-03-04 00:44:30",1427060,2.37,109.7,4.169,0.522,14.7,104.7775,11.5,12.67,13.66,0,110.4,13.13,12.30,71.7
"2016-03-04 00:45:00",1427061,2.366,108.6,1.766,0.104,14.35,104.7756,11.5,12.58,13.58,0,110.4,13.18,12.29,70.6
"2016-03-04 00:45:30",1427062,2.637,106.7,4.906,0.871,14.88,104.7794,11.51,12.63,13.64,0,110.4,13.13,12.30,68.7
"2016-03-04 00:46:00",1427063,3.749,110.4,7.985,1.425,17.58,104.7827,11.52,12.72,13.74,0,110.4,13.13,12.31,72.4
"2016-03-04 00:46:30",1427064,2.135,102.5,1.753,0.042,14.81,104.7806,11.51,12.56,13.6,0,110.4,13.18,12.30,64.5
"2016-03-04 00:47:00",1427065,2.118,104.1,1.607,0.092,14.58,104.7785,11.51,12.55,13.59,0,110.4,13.18,12.30,66.1
"2016-03-04 00:47:30",1427066,2.15,103.7,1.465,0.065,14.51,104.7702,11.48,12.53,13.57,0,110.4,13.18,12.28,65.7
"2016-03-04 00:48:00",1427067,2.105,100.6,1.256,0.104,14.61,104.7577,11.45,12.53,13.58,0,110.4,13.19,12.24,62.6
"2016-03-04 00:48:30",1427068,2.688,105.9,8.99,1.267,16.31,104.7624,11.46,12.61,13.66,0,110.4,13.14,12.26,67.9
"2016-03-04 00:49:00",1427069,3.093,110.1,6.666,1.402,16.85,104.7621,11.46,12.68,13.7,0,110.4,13.15,12.26,72.1
"2016-03-04 00:49:30",1427070,3.647,113.1,7.142,1.448,17.36,104.7665,11.47,12.68,13.68,0,110.4,13.15,12.27,75.1
"2016-03-04 00:50:00",1427071,2.695,103.9,5.852,0.988,15.15,104.7683,11.48,12.58,13.66,0,110.4,13.15,12.27,65.9
"2016-03-04 00:50:30",1427072,2.517,99.8,1.237,0.108,14.25,104.7634,11.47,12.49,13.65,0,110.4,13.19,12.26,61.8
"2016-03-04 00:51:00",1427073,2.674,101.4,2.983,0.256,14.65,104.7521,11.44,12.53,13.87,0,110.4,13.19,12.23,63.4
"2016-03-04 00:51:30",1427074,4.133,111.3,7.597,1.422,17.13,104.7383,11.4,12.61,13.95,0,110.4,13.15,12.19,73.3
"2016-03-04 00:52:00",1427075,2.743,109.1,3.111,0.526,14.84,104.7377,11.4,12.52,13.84,0,110.3,13.15,12.19,71.1
"2016-03-04 00:52:30",1427076,2.883,107,2.424,0.175,14.37,104.7377,11.4,12.45,13.73,0,110.3,13.19,12.19,69.0
"2016-03-04 00:53:00",1427077,2.931,107.1,2.599,0.096,14.36,104.7377,11.4,12.44,13.82,0,110.4,13.19,12.19,69.1
"2016-03-04 00:53:30",1427078,3.408,110.8,3.517,0.051,14.48,104.7352,11.39,12.42,13.9,0,110.4,13.19,12.19,72.8
"2016-03-04 00:54:00",1427079,4.38,121.3,6.935,1.338,16.86,104.7295,11.38,12.63,14.25,0,110.4,13.15,12.17,83.3
"2016-03-04 00:54:30",1427080,5.044,127.2,7.852,1.383,18.27,104.7202,11.36,12.65,14.33,0,110.4,13.15,12.15,89.2
"2016-03-04 00:55:00",1427081,4.439,124.6,7.879,1.243,15.77,104.7081,11.33,12.49,14.18,0,110.4,13.15,12.12,86.6
"2016-03-04 00:55:30",1427082,3.668,116.8,0.655,0.033,14.18,104.7039,11.31,12.39,14.53,0,110.4,13.2,12.11,78.8
"2016-03-04 00:56:00",1427083,4.888,121.4,7.23,1.439,16.59,104.7039,11.31,12.6,15.25,0,110.3,13.15,12.11,83.4
"2016-03-04 00:56:30",1427084,4.678,121,7.266,1.411,16.28,104.7039,11.31,12.46,15.27,0,110.3,13.15,12.11,83.0
"2016-03-04 00:57:00",1427085,3.423,118.4,0.853,0.07,14.39,104.7039,11.31,12.38,14.78,0,110.3,13.2,12.11,80.4
"2016-03-04 00:57:30",1427086,3.28,118.2,0.832,0.034,14.34,104.7036,11.31,12.36,14.96,0,110.3,13.2,12.11,80.2
"2016-03-04 00:58:00",1427087,3.388,118.8,0.607,0.104,14.42,104.7,11.3,12.34,15.15,0,110.3,13.2,12.10,80.8
"2016-03-04 00:58:30",1427088,4.221,122.5,6.705,1.282,16.12,104.6916,11.28,12.49,15.48,0,110.3,13.15,12.07,84.5
"2016-03-04 00:59:00",1427089,4.777,126.3,7.359,1.386,17.45,104.69,11.28,12.53,15.49,0,110.3,13.15,12.07,88.3
"2016-03-04 00:59:30",1427090,4.412,122.4,7.265,1.436,16.28,104.6856,11.27,12.44,15.41,0,110.3,13.15,12.06,84.4
"2016-03-04 01:00:00",1427091,3.471,121.8,5.665,0.892,15.03,104.6801,11.25,12.41,15.36,0,110.3,13.15,12.05,83.8
"2016-03-04 01:00:30",1427092,4.483,122.9,6.91,1.435,16.24,104.681,11.26,12.42,15.41,0,110.3,13.15,12.05,84.9
"2016-03-04 01:01:00",1427093,3.968,121.8,6.65,1.218,16.02,104.6801,11.25,12.45,15.55,0,110.3,13.15,12.05,83.8
"2016-03-04 01:01:30",1427094,3.234,118.3,0.757,0.038,14.29,104.683,11.26,12.29,15.43,0,110.3,13.2,12.05,80.3
"2016-03-04 01:02:00",1427095,3.208,118.6,0.893,0.069,14.21,104.6857,11.27,12.29,15.42,0,110.3,13.2,12.06,80.6
"2016-03-04 01:02:30",1427096,3.248,118.6,1.421,0.091,14.35,104.6886,11.28,12.3,15.41,0,110.3,13.2,12.07,80.6
"2016-03-04 01:03:00",1427097,3.78,124.9,6.62,1.223,15.8,104.6896,11.28,12.39,15.53,0,110.3,13.16,12.07,86.9
"2016-03-04 01:03:30",1427098,3.847,125.7,6.458,1.26,15.89,104.6892,11.28,12.39,15.53,0,110.3,13.16,12.07,87.7
"2016-03-04 01:04:00",1427099,4.25,130.9,7.435,1.434,17.27,104.6862,11.27,12.43,15.54,0,110.3,13.16,12.06,92.9
"2016-03-04 01:04:30",1427100,3.409,127.9,6.66,1.224,15.56,104.6798,11.25,12.37,15.42,0,110.3,13.16,12.04,89.9
"2016-03-04 01:05:00",1427101,2.621,123.6,0.777,0.057,14.28,104.6751,11.24,12.32,15.4,0,110.3,13.2,12.03,85.6
"2016-03-04 01:05:30",1427102,4.105,130.4,7.663,1.459,17.12,104.669,11.23,12.39,15.46,0,110.3,13.15,12.02,92.4
"2016-03-04 01:06:00",1427103,3.085,124.2,6.827,1.127,15.53,104.6713,11.23,12.35,15.4,0,110.3,13.16,12.02,86.2
"2016-03-04 01:06:30",1427104,2.507,123,1.004,0.073,14.31,104.6716,11.23,12.24,15.33,0,110.3,13.2,12.02,85.0
"2016-03-04 01:07:00",1427105,2.633,122.3,1.036,0.048,14.3,104.6716,11.23,12.23,15.4,0,110.3,13.2,12.02,84.3
"2016-03-04 01:07:30",1427106,2.622,122.4,1.328,0.05,14.44,104.6716,11.23,12.23,15.46,0,110.3,13.2,12.02,84.4
"2016-03-04 01:08:00",1427107,3.403,124.3,6.278,1.261,16.01,104.6694,11.23,12.32,15.57,0,110.3,13.16,12.02,86.3
"2016-03-04 01:08:30",1427108,3.527,124.5,6.585,1.181,16.38,104.6637,11.21,12.39,15.74,0,110.3,13.16,12.00,86.5
"2016-03-04 01:09:00",1427109,3.413,125.5,6.598,1.199,15.74,104.6584,11.2,12.34,15.77,0,110.3,13.16,11.99,87.5
"2016-03-04 01:09:30",1427110,3.908,126,7.066,1.385,16.57,104.6533,11.19,12.38,15.84,0,110.3,13.16,11.98,88.0
"2016-03-04 01:10:00",1427111,3.128,122.5,3.738,0.889,14.78,104.646,11.17,12.24,15.75,0,110.3,13.16,11.96,84.5
"2016-03-04 01:10:30",1427112,4.504,127.6,7.466,1.406,17.05,104.6383,11.15,12.34,15.83,0,110.3,13.16,11.94,89.6
"2016-03-04 01:11:00",1427113,2.999,119.4,0.498,0.041,14.17,104.6378,11.15,12.2,15.66,0,110.3,13.2,11.94,81.4
"2016-03-04 01:11:30",1427114,3.086,118.6,0.47,0.032,14.17,104.6378,11.15,12.16,15.64,0,110.3,13.2,11.94,80.6
"2016-03-04 01:12:00",1427115,3.211,118.2,0.296,0.04,14.15,104.6375,11.14,12.16,15.59,0,110.3,13.2,11.94,80.2
"2016-03-04 01:12:30",1427116,3.331,118.4,0.516,0.057,14.1,104.6307,11.13,12.15,15.49,0,110.3,13.2,11.92,80.4
"2016-03-04 01:13:00",1427117,4.167,121.5,6.446,1.276,15.66,104.6217,11.1,12.26,15.41,0,110.4,13.16,11.90,83.5
"2016-03-04 01:13:30",1427118,4.454,122,7.382,1.335,16.1,104.611,11.08,12.24,15.31,0,110.3,13.15,11.87,84.0
"2016-03-04 01:14:00",1427119,4.75,122.3,7.215,1.425,17.03,104.6039,11.06,12.32,15.39,0,110.3,13.15,11.85,84.3
"2016-03-04 01:14:30",1427120,4.465,120.4,6.898,1.366,15.82,104.6039,11.06,12.24,15.41,0,110.3,13.15,11.85,82.4
"2016-03-04 01:15:00",1427121,4.391,117.7,6.595,1.357,15.59,104.6039,11.06,12.25,15.51,0,110.3,13.15,11.85,79.7
"2016-03-04 01:15:30",1427122,4.034,115.9,6.025,1.101,15.32,104.6039,11.06,12.16,15.56,0,110.3,13.15,11.85,77.9
"2016-03-04 01:16:00",1427123,3.371,112,0.742,0.065,13.98,104.6039,11.06,12.09,15.58,0,110.3,13.2,11.85,74.0
"2016-03-04 01:16:30",1427124,3.242,110.7,0.465,0.054,13.87,104.6036,11.06,12.08,15.5,0,110.3,13.21,11.85,72.7
"2016-03-04 01:17:00",1427125,3.131,110.1,0.562,0.042,14.16,104.5997,11.05,12.07,15.45,0,110.3,13.21,11.84,72.1
"2016-03-04 01:17:30",1427126,3.696,113.2,6.158,1.157,15.62,104.591,11.03,12.16,15.51,0,110.3,13.17,11.82,75.2
"2016-03-04 01:18:00",1427127,4.217,116.1,7.345,1.428,16.33,104.5871,11.02,12.19,15.56,0,110.3,13.17,11.81,78.1
"2016-03-04 01:18:30",1427128,3.959,115.7,6.602,1.341,15.95,104.5851,11.01,12.19,15.62,0,110.3,13.17,11.80,77.7
"2016-03-04 01:19:00",1427129,3.675,114.8,6.579,1.289,15.95,104.5804,11,12.16,15.57,0,110.3,13.17,11.79,76.8
"2016-03-04 01:19:30",1427130,4.409,120.6,7.435,1.451,16.85,104.5777,10.99,12.26,15.64,0,110.3,13.17,11.78,82.6
"2016-03-04 01:20:00",1427131,3.192,118,4.689,0.865,14.71,104.5774,10.99,12.14,15.56,0,110.3,13.17,11.78,80.0
"2016-03-04 01:20:30",1427132,2.987,118.3,0.209,0.026,14.19,104.5774,10.99,12.05,15.47,0,110.3,13.22,11.78,80.3
"2016-03-04 01:21:00",1427133,2.97,118.8,0.717,0.017,14.26,104.5804,11,12.03,15.55,0,110.3,13.22,11.79,80.8
"2016-03-04 01:21:30",1427134,3.027,120.1,0.526,0.025,14.36,104.5807,11,12.03,15.62,0,110.3,13.22,11.79,82.1
"2016-03-04 01:22:00",1427135,3.007,120.6,0.317,0.033,14.39,104.5819,11,12.03,15.67,0,110.3,13.22,11.79,82.6
"2016-03-04 01:22:30",1427136,3.918,124.9,6.466,1.312,16.26,104.5854,11.01,12.17,15.84,0,110.3,13.17,11.80,86.9
"2016-03-04 01:23:00",1427137,4.357,128.5,7.231,1.423,16.51,104.5913,11.03,12.19,15.93,0,110.3,13.17,11.82,90.5
"2016-03-04 01:23:30",1427138,4.47,129.6,7.55,1.435,16.74,104.5931,11.03,12.12,16.05,0,110.3,13.17,11.82,91.6
"2016-03-04 01:24:00",1427139,3.828,126.9,6.985,1.291,16.04,104.5943,11.03,12.22,16.42,0,110.3,13.17,11.82,88.9
"2016-03-04 01:24:30",1427140,4.575,130.3,7.683,1.444,17.08,104.5943,11.03,12.15,16.46,0,110.3,13.17,11.82,92.3
"2016-03-04 01:25:00",1427141,2.748,126.3,1.356,0.111,14.19,104.594,11.03,12,16.16,0,110.3,13.22,11.82,88.3
"2016-03-04 01:25:30",1427142,2.736,124.2,1.195,0.042,14.02,104.5912,11.03,12,16.17,0,110.3,13.22,11.82,86.2
"2016-03-04 01:26:00",1427143,2.724,123.7,1.218,0.035,14.17,104.5899,11.02,12.01,16.48,0,110.3,13.22,11.81,85.7
"2016-03-04 01:26:30",1427144,2.63,124.5,1.682,0.112,14.41,104.5917,11.03,11.98,16.62,0,110.3,13.22,11.82,86.5
"2016-03-04 01:27:00",1427145,2.647,124.1,0.49,0.271,14.59,104.5912,11.03,12.05,16.67,0,110.3,13.18,11.82,86.1
"2016-03-04 01:27:30",1427146,4.153,133.2,7.308,1.456,17.24,104.5876,11.02,12.17,16.75,0,110.3,13.17,11.81,95.2
"2016-03-04 01:28:00",1427147,2.972,125,4.537,0.977,15.26,104.5843,11.01,12.02,16.69,0,110.3,13.17,11.80,87.0
"2016-03-04 01:28:30",1427148,4.199,132.1,7.206,1.43,17.38,104.5794,11,12.14,16.9,0,110.3,13.17,11.79,94.1
"2016-03-04 01:29:00",1427149,4.19,133.2,7.164,1.449,17.05,104.5735,10.98,12.16,16.99,0,110.3,13.17,11.77,95.2
"2016-03-04 01:29:30",1427150,3.514,129.2,7.054,1.341,15.78,104.5716,10.98,12.11,16.92,0,110.3,13.17,11.77,91.2
"2016-03-04 01:30:00",1427151,2.671,125.4,0.333,0.032,14.05,104.5716,10.98,11.98,16.83,0,110.3,13.21,11.77,87.4
"2016-03-04 01:30:30",1427152,2.739,124.7,0.513,0.035,13.95,104.5716,10.98,11.98,16.86,0,110.3,13.21,11.77,86.7
"2016-03-04 01:31:00",1427153,2.774,124.6,0.473,0.024,13.99,104.5716,10.98,11.97,16.83,0,110.3,13.21,11.77,86.6
"2016-03-04 01:31:30",1427154,2.789,123.7,0.564,0.031,14.22,104.5716,10.98,11.97,16.8,0,110.3,13.22,11.77,85.7
"2016-03-04 01:32:00",1427155,3.22,122.3,5.104,0.98,15.21,104.5716,10.98,12.05,16.82,0,110.3,13.17,11.77,84.3
"2016-03-04 01:32:30",1427156,4.211,124.1,7.544,1.439,16.83,104.5716,10.98,12.08,16.72,0,110.3,13.17,11.77,86.1
"2016-03-04 01:33:00",1427157,3.605,120.3,6.569,1.302,15.81,104.5716,10.98,12.08,16.65,0,110.3,13.18,11.77,82.3
"2016-03-04 01:33:30",1427158,4.189,124.4,7.514,1.417,16.49,104.5716,10.98,12.09,16.76,0,110.3,13.18,11.77,86.4
"2016-03-04 01:34:00",1427159,4.068,121.8,7.55,1.441,16.42,104.5711,10.97,12.07,16.82,0,110.3,13.18,11.77,83.8
"2016-03-04 01:34:30",1427160,3.196,119.9,5.604,0.994,15.15,104.5699,10.97,12.06,16.84,0,110.3,13.18,11.76,81.9
"2016-03-04 01:35:00",1427161,2.796,120,1.152,0.039,14.1,104.5674,10.97,11.94,16.78,0,110.3,13.22,11.76,82.0
"2016-03-04 01:35:30",1427162,2.665,123.7,0.698,0.046,14.07,104.5657,10.96,11.95,16.79,0,110.3,13.22,11.75,85.7
"2016-03-04 01:36:00",1427163,2.608,125.2,0.713,0.04,14.29,104.5634,10.96,11.96,16.81,0,110.3,13.22,11.75,87.2
"2016-03-04 01:36:30",1427164,2.405,127.6,1.674,0.089,14.59,104.5634,10.96,11.93,16.76,0,110.3,13.23,11.75,89.6
"2016-03-04 01:37:00",1427165,3.07,131.8,5.935,1.282,16.33,104.562,10.95,12.01,16.74,0,110.3,13.18,11.74,93.8
"2016-03-04 01:37:30",1427166,2.825,131.6,5.999,1.241,16.13,104.5615,10.95,12.04,16.73,0,110.3,13.18,11.74,93.6
"2016-03-04 01:38:00",1427167,2.96,134,6.731,1.379,16.67,104.5595,10.95,12.11,16.7,0,110.3,13.18,11.74,96.0
"2016-03-04 01:38:30",1427168,3.142,137.7,7.35,1.438,17.51,104.5564,10.94,12.11,16.55,0,110.3,13.18,11.73,99.7
"2016-03-04 01:39:00",1427169,2.701,135.3,7.799,1.396,16.37,104.5553,10.93,12.03,16.32,0,110.3,13.18,11.72,97.3
"2016-03-04 01:39:30",1427170,2.165,135.2,7.113,1.274,15.47,104.5513,10.92,12.03,16.29,0,110.3,13.18,11.71,97.2
"2016-03-04 01:40:00",1427171,1.342,132,1.508,0.074,13.82,104.5434,10.9,11.92,16.11,0,110.3,13.23,11.69,94.0
"2016-03-04 01:40:30",1427172,1.224,132.2,1.614,0.063,14.04,104.5394,10.89,11.92,16.07,0,110.3,13.23,11.68,94.2
"2016-03-04 01:41:00",1427173,1.153,135.2,1.613,0.053,14.35,104.538,10.89,11.91,16.03,0,110.3,13.23,11.68,97.2
"2016-03-04 01:41:30",1427174,1.086,131.9,2.393,0.061,14.41,104.5378,10.89,11.91,15.9,0,110.3,13.23,11.68,93.9
"2016-03-04 01:42:00",1427175,1.184,133,1.185,0.067,14.57,104.5378,10.89,11.9,15.77,0,110.3,13.23,11.68,95.0
"2016-03-04 01:42:30",1427176,1.236,131.8,1.908,0.086,14.65,104.5378,10.89,11.9,15.76,0,110.3,13.23,11.68,93.8
"2016-03-04 01:43:00",1427177,2.273,134.7,7.434,1.361,16.51,104.5378,10.89,12.05,15.98,0,110.3,13.18,11.68,96.7
"2016-03-04 01:43:30",1427178,2.717,137.2,7.796,1.279,16.39,104.5363,10.89,12.01,16,0,110.3,13.18,11.68,99.2
"2016-03-04 01:44:00",1427179,2.53,128.4,5.145,0.8,15.01,104.5282,10.86,12,16.38,0,110.3,13.18,11.66,90.4
"2016-03-04 01:44:30",1427180,3.847,129,7.767,1.414,16.99,104.5225,10.85,12.07,16.81,0,110.3,13.18,11.64,91.0
"2016-03-04 01:45:00",1427181,3.717,130.9,8.76,1.46,16.25,104.5188,10.84,12.1,16.98,0,110.3,13.18,11.63,92.9
"2016-03-04 01:45:30",1427182,3.561,123,6.936,1.224,15.66,104.5096,10.82,11.92,16.89,0,110.3,13.18,11.61,85.0
"2016-03-04 01:46:00",1427183,2.994,119,0.513,0.046,14.03,104.5048,10.81,11.86,16.86,0,110.3,13.22,11.60,81.0
"2016-03-04 01:46:30",1427184,3.064,119.6,0.441,0.033,14.08,104.5051,10.81,11.85,16.93,0,110.3,13.22,11.60,81.6
"2016-03-04 01:47:00",1427185,3.088,118.4,0.498,0.038,14.24,104.5045,10.8,11.85,16.92,0,110.2,13.22,11.59,80.4
"2016-03-04 01:47:30",1427186,3.034,116.7,0.841,0.061,14.53,104.5054,10.81,11.85,16.93,0,110.2,13.22,11.60,78.7
"2016-03-04 01:48:00",1427187,3.889,119,6.512,1.262,16.33,104.506,10.81,12.02,17.17,0,110.2,13.18,11.60,81.0